Temperature
16 16 16 16 16 16 16 16 16 16 16 17 17 17 17 17 16 16 16 16 16 16 16 16 15 15 15 15 15 15 15 15 15 15 15 15 14 14
16 16 16 16 16 16 16 16 16 16 16 16 16 16 16 16 16 16 16 16 16 16 15 15 15 15 15 15 15 15 15 15 15 15 15 15 14 14
16 16 16 16 16 16 16 16 16 16 16 16 16 16 16 16 16 16 16 16 15 15 15 15 15 15 15 15 15 15 15 15 15 15 15 15 14 14
16 16 16 15 15 15 15 15 15 15 15 15 15 15 15 15 15 15 15 15 15 15 15 15 15 14 15 15 15 15 15 14 14 14 14 14 14 14
15 15 15 15 15 15 15 15 15 15 15 15 15 15 15 15 15 15 14 14 14 14 14 14 14 14 14 14 14 14 14 14 14 14 14 14 14 14
15 15 15 15 15 15 15 15 15 14 14 14 14 14 14 14 14 14 14 14 14 14 14 14 14 14 14 14 14 14 14 14 14 14 14 14 14 14
14 14 14 14 14 14 14 14 14 14 14 14 13 13 13 13 13 13 13 13 13 13 13 13 13 13 13 13 13 13 13 13 13 13 13 13 13 13
14 14 14 14 13 13 13 13 13 13 13 13 12 12 12 12 12 12 11 12 12 12 12 12 12 12 12 12 12 12 12 12 12 12 12 12 12 12
14 13 13 13 13 13 12 12 12 12 12 11 11 11 11 10 10 10 10 10 10 10 10 11 11 11 11 11 11 11 11 11 11 11 11 11 12 12
13 12 12 12 12 12 12 11 11 11 11 10 10 10 9 9 9 9 9 9 9 9 9 9 9 10 10 10 10 10 10 10 10 10 10 10 11 11
12 12 11 11 11 11 11 10 10 10 9 9 9 8 8 8 8 8 8 8 8 8 8 7 7 8 8 9 9 9 9 9 9 9 9 9 10 10
11 11 10 10 10 9 9 9 9 8 8 8 8 7 7 7 7 7 7 6 6 6 6 6 6 6 6 7 7 7 8 8 8 8 8 8 8 8
10 10 9 9 8 8 8 8 7 7 7 7 7 7 6 6 6 6 6 6 5 5 5 5 5 5 5 5 6 6 6 7 7 7 7 7 7 7
9 8 8 7 7 7 7 6 6 6 6 6 6 6 5 5 5 5 5 5 4 4 4 4 4 4 4 4 4 5 5 6 6 6 6 6 6 7
8 7 7 7 6 6 6 5 5 5 5 5 5 4 4 4 4 4 4 4 4 4 4 3 3 3 3 3 3 4 4 5 5 5 5 5 6 6
7 6 6 6 6 5 5 5 5 4 4 4 4 3 3 3 3 3 3 3 3 4 3 3 3 3 3 3 3 3 3 3 3 4 4 4 5 5
6 6 6 5 5 5 4 4 4 4 3 3 3 3 2 2 2 2 2 2 2 2 2 2 2 2 2 2 2 3 3 3 3 3 3 4 4 5
5 5 5 4 4 4 4 3 3 3 2 2 2 2 1 1 1 1 1 1 1 1 1 1 1 2 2 2 2 2 2 2 3 3 3 3 4 4
5 4 4 4 3 3 3 2 2 2 1 1 1 1 1 1 1 1 1 0 0 0 1 1 0 0 0 0 1 2 1 2 2 2 3 3 3 4
4 4 3 3 3 2 2 2 1 1 1 1 1 1 0 0 0 0 0 -0 -0 0 0 0 0 0 -0 -0 0 2 2 2 2 2 2 3 3 4
3 3 3 2 2 2 1 1 1 1 1 0 0 0 0 0 0 -0 -0 -0 -0 -0 -0 0 0 -0 -0 0 0 1 2 2 2 2 2 2 2 3
3 2 2 2 1 1 1 1 0 0 0 0 0 0 0 0 -0 -0 -0 -0 -0 -0 -0 -0 -0 -0 0 -0 0 1 1 2 2 2 2 2 2 2
2 2 1 1 1 1 0 0 0 -0 -0 -0 -0 0 -0 -0 -0 -0 -0 -0 -1 -0 -1 -0 -0 -0 0 0 0 0 1 1 1 2 2 2 2 2
Wind_Speed
2 2 1 1 1 1 2 3 4 1 3 4 3 3 5 8 12 13 14 16 18 19 19 19 19 18 18 18 18 18 18 17 17 17 17 16 16 16
2 2 1 0 1 1 1 2 3 4 3 3 3 3 3 5 9 11 13 14 17 18 20 20 21 21 21 21 21 21 21 20 20 19 19 19 19 19
2 2 1 1 0 1 1 1 1 3 3 4 3 3 3 3 3 6 9 10 12 16 19 21 22 22 23 23 23 22 22 22 21 21 21 21 21 20
2 2 1 1 1 0 1 1 0 1 2 3 3 3 3 3 3 3 5 6 8 12 14 17 18 20 20 21 21 22 22 22 22 22 22 21 21 21
3 3 1 2 1 0 1 1 1 1 1 1 2 2 2 3 3 3 3 4 7 9 9 10 12 14 15 17 18 20 20 21 21 22 22 22 22 21
3 3 3 3 2 1 1 1 1 1 1 1 1 2 2 3 3 3 4 4 5 6 7 8 10 11 12 14 15 16 18 19 20 21 22 22 22 22
4 4 4 5 5 3 2 2 2 2 2 1 1 2 3 3 3 3 3 4 4 3 4 5 7 7 11 13 13 14 15 16 17 19 20 21 21 22
6 6 6 8 8 8 9 8 5 3 1 1 1 1 3 2 2 3 3 3 4 3 4 6 4 5 7 10 12 13 13 13 14 15 16 18 19 20
6 6 6 7 7 6 8 10 10 10 6 2 1 2 2 3 3 3 3 3 4 5 4 5 4 5 6 10 13 13 14 13 14 14 14 15 16 17
8 7 7 7 7 6 6 7 6 6 6 4 1 2 3 3 3 3 3 4 5 4 2 3 4 5 6 10 11 12 14 16 16 15 15 15 15 15
8 8 8 7 9 9 7 6 6 6 8 10 9 8 9 9 5 2 3 3 4 4 2 2 4 5 5 5 8 12 15 17 18 18 18 17 16 15
7 7 9 8 9 9 6 5 6 5 6 8 9 11 10 11 11 4 2 3 3 4 4 3 4 4 5 4 4 10 13 15 17 17 17 17 16 11
5 4 4 7 8 8 6 4 3 3 4 5 6 6 6 7 7 8 5 2 3 4 5 4 4 4 4 5 5 6 7 8 12 13 16 16 16 11
4 2 3 6 8 8 6 6 8 7 5 5 5 5 5 5 6 7 9 8 5 5 7 5 3 4 5 6 6 5 6 9 8 7 9 13 14 15
3 5 6 8 8 7 9 10 8 6 5 5 4 4 4 4 4 5 7 9 9 9 9 8 4 5 4 6 6 6 7 7 6 6 6 7 7 8
5 6 8 10 8 8 8 7 6 5 4 3 3 3 4 5 5 4 5 5 5 6 9 12 9 6 5 7 8 9 8 6 7 8 8 8 8 9
4 5 6 6 6 6 5 5 5 5 5 4 4 4 4 5 5 5 4 5 5 6 7 6 11 11 7 8 8 8 8 8 8 8 9 10 9 9
7 6 5 5 4 4 4 4 4 4 4 3 4 4 4 5 5 6 5 5 6 6 7 7 8 8 7 6 7 7 7 8 9 10 9 9 11 10
7 5 4 3 3 3 3 3 3 3 3 3 4 4 5 5 5 6 7 7 7 7 8 7 7 6 9 11 7 7 8 11 10 10 9 9 11 11
5 4 3 3 2 2 3 3 3 4 4 4 4 4 5 5 6 7 7 8 8 8 9 8 7 7 8 10 9 11 14 10 9 10 11 10 10 12
3 3 3 2 2 2 3 3 3 3 3 4 4 5 5 5 6 7 8 10 9 8 9 10 10 13 9 7 8 9 9 13 14 11 11 10 10 8
3 3 2 2 2 2 2 3 2 3 4 4 5 6 6 6 7 8 8 9 9 9 11 10 10 9 7 8 11 11 11 12 14 17 14 11 8 7
2 2 1 1 1 1 2 2 2 3 4 5 5 6 6 7 7 7 8 9 9 10 11 11 9 8 8 8 10 10 12 12 9 9 10 13 15 16
Wind_Direction
162 151 148 171 122 136 147 151 152 210 287 289 299 289 259 241 237 225 227 231 231 232 235 237 239 241 243 245 245 246 247 248 250 251 253 254 254 255
169 159 154 191 57 72 121 138 151 166 231 273 271 291 290 265 247 232 236 240 239 240 242 244 246 247 249 249 250 250 250 251 251 252 253 254 254 255
170 158 198 185 76 26 67 93 126 153 214 279 279 306 331 319 303 259 254 256 257 254 252 253 254 255 254 254 254 254 255 255 256 256 256 255 255 255
174 153 205 153 121 32 68 53 56 168 187 270 301 318 320 315 306 295 286 280 273 274 267 262 264 265 265 263 262 260 259 259 260 260 259 258 258 257
166 161 179 135 127 39 68 42 342 42 138 211 291 308 316 341 340 331 328 325 312 301 294 286 287 285 281 277 274 270 267 265 265 264 263 261 260 259
131 127 115 114 118 98 70 26 39 40 38 39 332 332 330 334 5 342 331 329 317 321 333 334 330 320 307 296 289 283 279 275 272 268 266 263 261 260
103 92 83 80 75 70 71 55 55 51 35 29 355 347 335 347 344 330 321 316 310 336 336 329 330 326 323 316 308 303 299 293 285 278 273 268 264 262
104 87 73 59 58 60 63 61 61 66 62 43 343 318 304 309 314 322 322 337 314 322 340 310 315 311 319 320 324 322 319 316 308 299 289 280 273 268
98 91 76 57 52 58 59 55 48 45 48 75 11 321 310 306 312 316 313 294 277 294 327 299 310 306 315 324 331 335 338 338 333 326 315 302 288 277
85 87 84 61 51 63 67 56 43 29 26 35 31 314 316 304 289 287 286 297 288 291 302 286 307 304 310 312 322 341 344 340 334 328 321 311 302 292
77 75 77 67 54 63 66 56 37 15 17 19 18 10 4 0 354 3 348 346 319 307 324 302 297 302 295 291 311 330 332 329 327 323 319 316 311 305
75 64 62 62 55 59 66 60 38 1 1 7 12 14 15 14 17 24 354 336 316 305 319 326 305 323 310 294 308 322 322 319 319 317 315 314 314 310
80 60 41 46 52 54 62 66 44 18 13 17 15 13 11 12 11 11 5 336 315 294 310 325 310 311 287 296 301 300 309 312 313 310 311 311 312 308
83 56 38 47 48 45 48 41 38 41 37 32 27 13 6 358 349 350 353 346 325 294 308 323 305 303 300 298 295 298 305 304 302 299 304 308 309 305
65 61 60 58 52 44 41 44 44 45 44 36 17 352 336 329 333 337 340 344 336 331 335 330 312 300 289 289 292 294 303 301 297 301 304 302 297 299
49 52 59 60 56 46 42 42 41 42 45 31 355 337 336 344 345 341 335 336 333 319 320 326 321 308 299 289 289 294 297 294 304 304 301 297 293 292
64 59 54 52 48 42 36 32 30 29 29 14 8 358 351 348 337 335 333 332 325 314 316 318 321 312 285 281 290 290 296 300 300 303 306 303 295 288
80 69 63 60 58 49 39 22 16 13 6 6 5 357 348 341 336 334 334 330 320 312 310 311 322 323 322 299 260 281 296 300 302 302 299 298 297 295
80 76 69 61 55 46 35 22 3 349 354 5 2 351 341 336 333 330 328 325 319 314 311 311 316 320 322 320 298 281 296 302 302 302 298 293 294 296
74 77 68 59 52 37 18 6 360 358 1 357 350 341 336 331 327 323 321 317 316 315 314 314 312 310 307 304 299 298 298 294 300 301 301 299 291 285
66 64 62 60 47 29 14 12 15 8 356 345 336 328 324 323 318 315 314 313 314 312 313 311 304 305 298 295 298 299 299 299 296 294 299 302 305 303
73 66 55 55 46 28 20 21 20 1 346 335 324 319 316 313 311 312 312 312 310 307 305 304 305 308 306 305 305 304 305 309 309 306 298 289 300 306
87 77 70 48 39 37 37 27 11 339 326 320 317 314 314 312 308 305 305 305 306 307 310 311 313 312 307 302 302 304 304 310 314 319 315 312 308 297
Height
1559 1560 1561 1562 1562 1563 1563 1563 1564 1562 1562 1562 1562 1562 1561 1561 1561 1561 1561 1561 1560 1560 1559 1558 1558 1557 1557 1556 1556 1555 1555 1555 1554 1554 1554 1553 1553 1553
1556 1558 1559 1560 1560 1561 1561 1561 1561 1561 1560 1560 1560 1559 1559 1559 1559 1558 1558 1558 1557 1557 1556 1555 1554 1554 1553 1552 1552 1551 1551 1550 1550 1549 1549 1549 1548 1548
1554 1556 1557 1557 1558 1558 1558 1559 1559 1558 1558 1557 1557 1557 1556 1556 1555 1555 1555 1554 1554 1553 1552 1551 1550 1549 1549 1548 1547 1547 1546 1545 1545 1544 1544 1543 1543 1543
1553 1554 1555 1555 1556 1556 1556 1556 1556 1556 1555 1554 1554 1553 1553 1552 1552 1551 1551 1550 1549 1549 1548 1546 1546 1545 1544 1543 1542 1541 1540 1540 1539 1538 1538 1537 1537 1536
1551 1552 1552 1553 1553 1553 1553 1553 1553 1552 1552 1551 1550 1550 1549 1548 1547 1547 1546 1545 1545 1544 1542 1541 1540 1539 1538 1537 1536 1535 1534 1533 1533 1532 1531 1530 1530 1529
1549 1549 1550 1550 1550 1550 1550 1550 1549 1549 1548 1548 1547 1546 1545 1544 1543 1541 1540 1540 1539 1538 1537 1535 1534 1533 1532 1530 1530 1528 1527 1526 1525 1524 1523 1523 1522 1522
1546 1547 1547 1547 1547 1547 1547 1546 1546 1545 1544 1544 1543 1541 1541 1539 1538 1536 1535 1533 1533 1532 1530 1529 1527 1526 1525 1524 1522 1521 1520 1518 1517 1516 1515 1515 1514 1513
1544 1544 1544 1544 1544 1544 1543 1543 1542 1542 1540 1540 1539 1537 1536 1535 1533 1532 1530 1528 1527 1526 1524 1522 1521 1519 1518 1517 1515 1513 1512 1511 1509 1508 1507 1506 1505 1505
1541 1541 1541 1542 1541 1541 1540 1540 1539 1538 1538 1537 1535 1534 1532 1531 1529 1528 1526 1524 1522 1520 1518 1515 1514 1512 1511 1510 1508 1507 1505 1503 1502 1500 1499 1498 1497 1496
1539 1539 1539 1539 1539 1538 1538 1537 1536 1535 1534 1533 1532 1530 1529 1527 1525 1524 1522 1519 1518 1516 1513 1510 1508 1506 1505 1504 1502 1500 1499 1497 1495 1493 1491 1490 1489 1487
1537 1537 1537 1537 1536 1536 1535 1534 1534 1533 1532 1531 1529 1528 1526 1524 1522 1520 1518 1515 1513 1511 1509 1506 1503 1500 1498 1497 1496 1494 1492 1490 1488 1486 1484 1483 1481 1479
1535 1535 1535 1534 1534 1533 1533 1532 1531 1531 1530 1528 1527 1525 1524 1522 1520 1517 1515 1513 1510 1507 1506 1503 1499 1496 1491 1489 1488 1487 1484 1482 1480 1478 1476 1474 1472 1470
1533 1533 1533 1533 1533 1532 1532 1531 1530 1529 1527 1526 1525 1523 1521 1519 1517 1515 1513 1511 1508 1505 1503 1499 1495 1492 1489 1484 1481 1480 1478 1475 1472 1470 1468 1467 1465 1463
1532 1532 1532 1532 1532 1532 1531 1530 1529 1528 1526 1524 1523 1521 1518 1516 1514 1512 1510 1508 1505 1502 1499 1496 1492 1488 1484 1479 1475 1472 1471 1469 1466 1463 1461 1459 1457 1456
1532 1532 1532 1532 1532 1531 1530 1529 1528 1526 1524 1523 1521 1519 1517 1514 1512 1509 1506 1504 1501 1498 1495 1491 1488 1483 1480 1476 1471 1467 1464 1461 1459 1456 1453 1450 1448 1447
1532 1532 1532 1532 1531 1530 1529 1528 1526 1525 1523 1521 1519 1517 1514 1511 1508 1505 1502 1498 1495 1492 1490 1487 1483 1479 1474 1471 1467 1463 1460 1456 1452 1450 1446 1443 1441 1439
1532 1532 1532 1531 1530 1529 1528 1527 1525 1523 1522 1520 1517 1514 1511 1508 1505 1502 1498 1495 1491 1487 1483 1481 1478 1474 1470 1466 1462 1458 1455 1451 1447 1443 1439 1435 1433 1431
1533 1532 1531 1531 1530 1529 1528 1526 1524 1522 1520 1518 1515 1512 1509 1505 1502 1499 1496 1492 1488 1484 1480 1476 1472 1467 1464 1461 1459 1454 1450 1445 1441 1438 1434 1429 1424 1423
1533 1532 1531 1531 1530 1528 1527 1525 1523 1521 1519 1516 1513 1510 1506 1503 1499 1495 1492 1489 1485 1481 1477 1474 1470 1465 1460 1456 1452 1451 1446 1441 1436 1432 1428 1424 1419 1415
1533 1532 1531 1530 1529 1528 1526 1524 1522 1519 1517 1514 1511 1507 1504 1500 1496 1493 1489 1485 1482 1478 1474 1470 1467 1463 1459 1455 1448 1444 1442 1437 1432 1427 1423 1418 1414 1411
1533 1532 1531 1530 1529 1527 1525 1523 1520 1518 1515 1512 1508 1505 1501 1497 1493 1490 1486 1482 1479 1475 1470 1467 1463 1460 1456 1451 1446 1440 1437 1434 1429 1424 1419 1414 1409 1404
1533 1532 1531 1529 1528 1526 1524 1521 1519 1516 1513 1509 1506 1502 1498 1494 1490 1486 1483 1479 1476 1472 1468 1464 1460 1456 1452 1448 1442 1437 1432 1428 1425 1421 1417 1412 1407 1401
1533 1532 1530 1529 1527 1525 1522 1520 1517 1513 1510 1506 1502 1498 1495 1491 1487 1483 1480 1476 1473 1468 1464 1460 1456 1452 1448 1444 1439 1434 1429 1425 1420 1415 1411 1408 1405 1400